Simultaneous Nadir Overpasses (SNOs) Predictions

Prediction of SNOs between NOAA-19 and TERRA Satellite Orbit:

Table of predicted SNOs for the next 14.0 days since TLE Epoch: 4/16/2016
Index Date (NOAA-19) Time (NOAA-19) Lat,Lon (NOAA-19) SZA (NOAA-19 ) Date (TERRA) Time (TERRA) Lat,Lon (TERRA) SZA (TERRA ) Distance(km) Time Diff (sec)
1 04/18/2016 05:28:41 73.53, 104.26 62.57 04/18/2016 05:29:50 73.53, 104.18 62.59 2.67 69
2 04/18/2016 06:19:44 -73.47, -88.37 117.49 04/18/2016 06:19:19 -73.47, -88.32 117.50 1.56 25
3 04/20/2016 11:02:51 -73.56,-159.31 118.16 04/20/2016 11:03:39 -73.54,-159.27 118.18 2.54 48
4 04/20/2016 11:53:46 73.43, 8.26 61.72 04/20/2016 11:53:06 73.45, 8.19 61.72 2.74 40
5 04/22/2016 16:36:53 73.54, -62.74 61.08 04/22/2016 16:37:27 73.52, -62.75 61.07 2.41 34
6 04/22/2016 17:27:56 -73.45, 104.72 119.02 04/22/2016 17:26:56 -73.47, 104.78 119.01 3.06 60
7 04/24/2016 22:11:02 -73.50, 33.87 119.69 04/24/2016 22:11:19 -73.51, 33.77 119.68 3.51 17
8 04/24/2016 23:01:58 73.46,-158.76 60.27 04/24/2016 23:00:45 73.47,-158.68 60.27 2.80 73
9 04/27/2016 03:45:04 73.53, 130.34 59.63 04/27/2016 03:45:09 73.52, 130.32 59.62 1.60 5
10 04/27/2016 04:35:56 -72.87, -60.90 120.97 04/27/2016 04:34:48 -72.95, -63.20 121.00 75.72 68
11 04/29/2016 08:28:19 74.05, 58.33 59.42 04/29/2016 08:29:28 73.89, 60.03 59.34 54.70 69
12 04/29/2016 09:19:14 -73.53,-133.14 121.07 04/29/2016 09:19:03 -73.55,-133.10 121.05 2.40 11




NCC Satellite Simultaneous Nadir Overpasses (SNOs) Prediction Service
